| time (UTC) | temp F | wind direction | speed knots | gust knots | rain 1hr in | rain 24hr in | rain mn in | humidity % | barometer mb |
| 20260506134526 | 55 | 241 | 0.0 | 0.0 | 0.00 | 0.00 | 0.00 | 89 | 1019.2 |
| 20260506133026 | 55 | 9 | 0.0 | 0.0 | 0.00 | 0.00 | 0.00 | 90 | 1019.2 |
| 20260506131528 | 55 | 9 | 0.0 | 0.0 | 0.00 | 0.00 | 0.00 | 90 | 1019.0 |
| 20260506130023 | 55 | 9 | 0.0 | 0.0 | 0.00 | 0.00 | 0.00 | 88 | 1019.0 |
| 20260506124526 | 56 | 9 | 0.0 | 0.0 | 0.00 | 0.00 | 0.00 | 88 | 1018.9 |
| 20260506123022 | 56 | 9 | 0.0 | 0.0 | 0.00 | 0.00 | 0.00 | 87 | 1018.8 |
| 20260506121520 | 55 | 9 | 0.0 | 0.0 | 0.00 | 0.00 | 0.00 | 89 | 1018.7 |
| 20260506120024 | 56 | 9 | 0.0 | 0.0 | 0.00 | 0.00 | 0.00 | 87 | 1018.7 |
| 20260506114517 | 56 | 9 | 0.0 | 1.7 | 0.00 | 0.00 | 0.00 | 87 | 1018.7 |
| 20260506113016 | 56 | 82 | 0.0 | 0.9 | 0.00 | 0.00 | 0.00 | 88 | 1018.7 |
| 20260506111515 | 56 | 82 | 0.0 | 0.0 | 0.00 | 0.00 | 0.00 | 88 | 1018.7 |
| 20260506110013 | 56 | 82 | 0.0 | 0.0 | 0.00 | 0.00 | 0.00 | 88 | 1018.5 |
| 20260506104511 | 56 | 82 | 0.0 | 0.0 | 0.00 | 0.00 | 0.00 | 88 | 1018.4 |
| 20260506103023 | 56 | 82 | 0.0 | 0.0 | 0.00 | 0.00 | 0.00 | 88 | 1018.3 |
| 20260506101508 | 56 | 82 | 0.0 | 0.0 | 0.00 | 0.00 | 0.00 | 88 | 1018.0 |
| 20260506100007 | 56 | 82 | 0.0 | 0.0 | 0.00 | 0.00 | 0.00 | 88 | 1017.9 |
| 20260506094515 | 56 | 82 | 0.0 | 0.0 | 0.00 | 0.00 | 0.00 | 89 | 1017.9 |
| 20260506093005 | 56 | 82 | 0.0 | 0.0 | 0.00 | 0.00 | 0.00 | 87 | 1017.9 |
| 20260506091505 | 56 | 82 | 0.0 | 0.0 | 0.00 | 0.00 | 0.00 | 87 | 1017.9 |
| 20260506090003 | 57 | 82 | 0.0 | 0.0 | 0.00 | 0.00 | 0.00 | 86 | 1018.1 |
| 20260506084502 | 57 | 82 | 0.0 | 0.0 | 0.00 | 0.00 | 0.00 | 85 | 1018.1 |
| 20260506083002 | 57 | 82 | 0.0 | 0.0 | 0.00 | 0.00 | 0.00 | 85 | 1018.1 |
| 20260506081605 | 57 | 82 | 0.0 | 0.9 | 0.00 | 0.00 | 0.00 | 84 | 1018.0 |
| 20260506073100 | 57 | 82 | 0.0 | 0.0 | 0.00 | 0.03 | 0.00 | 85 | 1017.7 |
| 20260506071555 | 57 | 82 | 0.0 | 0.0 | 0.00 | 0.03 | 0.00 | 84 | 1017.6 |
| 20260506070113 | 57 | 82 | 0.0 | 0.0 | 0.00 | 0.03 | 0.00 | 82 | 1017.5 |
| 20260506061548 | 57 | 69 | 0.0 | 0.0 | 0.00 | 0.08 | 0.03 | 82 | 1017.2 |
| 20260506044553 | 58 | 299 | 0.0 | 0.0 | 0.00 | 0.14 | 0.03 | 81 | 1016.6 |
| 20260506043040 | 59 | 336 | 0.0 | 1.7 | 0.00 | 0.14 | 0.03 | 79 | 1016.3 |
| 20260506041548 | 59 | 213 | 0.0 | 0.9 | 0.00 | 0.14 | 0.03 | 79 | 1016.0 |
| 20260506040042 | 59 | 213 | 0.0 | 0.0 | 0.00 | 0.14 | 0.03 | 80 | 1016.0 |
| 20260506034536 | 59 | 213 | 0.0 | 0.0 | 0.00 | 0.16 | 0.03 | 80 | 1015.7 |
| 20260506033034 | 59 | 213 | 0.0 | 0.9 | 0.00 | 0.16 | 0.03 | 79 | 1015.5 |
| 20260506031537 | 59 | 213 | 0.0 | 1.7 | 0.00 | 0.16 | 0.03 | 79 | 1015.0 |
| 20260506030032 | 60 | 215 | 0.0 | 1.7 | 0.00 | 0.16 | 0.03 | 79 | 1014.7 |
| 20260506024534 | 60 | 232 | 0.0 | 2.6 | 0.00 | 0.21 | 0.03 | 78 | 1014.7 |
| 20260506023032 | 61 | 178 | 0.0 | 2.6 | 0.00 | 0.21 | 0.03 | 77 | 1014.6 |
| 20260506021530 | 61 | 212 | 0.0 | 2.6 | 0.00 | 0.21 | 0.03 | 78 | 1014.5 |
| 20260506020029 | 62 | 194 | 0.0 | 1.7 | 0.00 | 0.21 | 0.03 | 80 | 1014.3 |
| 20260506014529 | 62 | 228 | 0.9 | 3.5 | 0.00 | 0.27 | 0.03 | 76 | 1014.1 |
| 20260506013028 | 62 | 204 | 0.9 | 3.5 | 0.00 | 0.27 | 0.03 | 76 | 1014.1 |
| 20260506011528 | 63 | 190 | 0.9 | 2.6 | 0.00 | 0.27 | 0.03 | 76 | 1013.9 |
| 20260506010028 | 64 | 13 | 0.0 | 3.5 | 0.00 | 0.27 | 0.03 | 76 | 1013.8 |
| 20260506004533 | 64 | 136 | 0.0 | 3.5 | 0.00 | 0.32 | 0.03 | 76 | 1014.0 |
| 20260506003026 | 65 | 27 | 1.7 | 5.2 | 0.00 | 0.32 | 0.03 | 73 | 1013.9 |
| 20260506001525 | 65 | 111 | 0.0 | 6.1 | 0.00 | 0.32 | 0.03 | 75 | 1013.6 |
| 20260506000024 | 65 | 240 | 0.0 | 1.7 | 0.00 | 0.32 | 0.03 | 73 | 1013.8 |
| 20260505234559 | 66 | 168 | 0.9 | 3.5 | 0.00 | 0.35 | 0.03 | 74 | 1013.8 |
| 20260505233024 | 66 | 61 | 0.0 | 2.6 | 0.00 | 0.35 | 0.03 | 74 | 1014.0 |
| 20260505231524 | 67 | 127 | 0.0 | 1.7 | 0.00 | 0.35 | 0.03 | 77 | 1013.9 |
| 20260505230023 | 67 | 336 | 0.9 | 2.6 | 0.00 | 0.35 | 0.03 | 74 | 1013.9 |
| 20260505224529 | 69 | 5 | 0.0 | 7.8 | 0.00 | 0.40 | 0.03 | 69 | 1014.0 |
| 20260505223018 | 68 | 309 | 0.0 | 5.2 | 0.00 | 0.40 | 0.03 | 71 | 1014.0 |
| 20260505221516 | 66 | 342 | 1.7 | 5.2 | 0.00 | 0.40 | 0.03 | 74 | 1014.2 |
| 20260505220014 | 66 | 343 | 1.7 | 5.2 | 0.00 | 0.40 | 0.03 | 74 | 1014.1 |
| 20260505214519 | 65 | 348 | 1.7 | 7.0 | 0.00 | 0.40 | 0.03 | 74 | 1014.4 |
| 20260505213013 | 65 | 338 | 1.7 | 5.2 | 0.00 | 0.40 | 0.03 | 75 | 1014.5 |
| 20260505211512 | 65 | 332 | 2.6 | 5.2 | 0.00 | 0.40 | 0.03 | 75 | 1014.6 |
| 20260505210012 | 65 | 355 | 1.7 | 7.0 | 0.00 | 0.40 | 0.03 | 75 | 1014.6 |
| 20260505204508 | 66 | 150 | 0.0 | 5.2 | 0.00 | 0.40 | 0.03 | 76 | 1014.6 |
| 20260505203005 | 65 | 314 | 0.0 | 3.5 | 0.00 | 0.40 | 0.03 | 77 | 1014.7 |
| 20260505201504 | 65 | 327 | 0.9 | 5.2 | 0.00 | 0.40 | 0.03 | 75 | 1014.7 |
| 20260505200107 | 64 | 5 | 1.7 | 4.3 | 0.00 | 0.40 | 0.03 | 76 | 1014.7 |
| 20260505194606 | 62 | 21 | 0.9 | 4.3 | 0.00 | 0.40 | 0.03 | 78 | 1014.7 |
| 20260505193057 | 62 | 325 | 0.0 | 4.3 | 0.00 | 0.40 | 0.03 | 81 | 1014.9 |
| 20260505191555 | 61 | 344 | 1.7 | 3.5 | 0.00 | 0.40 | 0.03 | 79 | 1014.9 |
| 20260505190054 | 60 | 348 | 1.7 | 5.2 | 0.00 | 0.40 | 0.03 | 80 | 1014.9 |
| 20260505184550 | 60 | 355 | 0.9 | 4.3 | 0.00 | 0.40 | 0.03 | 81 | 1014.9 |
| 20260505183052 | 60 | 336 | 0.9 | 3.5 | 0.00 | 0.40 | 0.03 | 82 | 1014.9 |
| 20260505181548 | 60 | 311 | 0.9 | 4.3 | 0.00 | 0.40 | 0.03 | 82 | 1014.8 |
| 20260505180045 | 59 | 355 | 0.0 | 2.6 | 0.00 | 0.40 | 0.03 | 84 | 1014.9 |
| 20260505174545 | 59 | 19 | 0.9 | 3.5 | 0.00 | 0.40 | 0.03 | 83 | 1014.6 |
| 20260505173044 | 58 | 15 | 1.7 | 3.5 | 0.00 | 0.40 | 0.03 | 83 | 1014.6 |
| 20260505171536 | 57 | 348 | 0.9 | 3.5 | 0.00 | 0.40 | 0.03 | 84 | 1014.6 |
| 20260505170035 | 57 | 5 | 0.0 | 2.6 | 0.00 | 0.40 | 0.03 | 87 | 1014.7 |
| 20260505164527 | 56 | 5 | 0.9 | 2.6 | 0.00 | 0.40 | 0.03 | 88 | 1014.9 |
| 20260505163023 | 55 | 5 | 0.0 | 1.7 | 0.00 | 0.40 | 0.03 | 89 | 1014.7 |
| 20260505161527 | 55 | 12 | 0.0 | 1.7 | 0.00 | 0.40 | 0.03 | 90 | 1014.6 |
| 20260505153017 | 54 | 9 | 0.0 | 1.7 | 0.00 | 0.40 | 0.03 | 92 | 1014.1 |
| 20260505151512 | 53 | 43 | 0.0 | 0.0 | 0.00 | 0.40 | 0.03 | 93 | 1014.2 |